| time (UTC) | temp C | wind direction | speed KPH | gust KPH | rain 1hr cm | rain 24hr cm | rain mn cm | humidity % | barometer mb |
| 20260510141557 | 17 | 149 | 0.0 | 1.6 | 0.00 | 0.00 | 0.00 | 83 | 1015.2 |
| 20260510140057 | 17 | 148 | 0.0 | 3.2 | 0.00 | 0.00 | 0.00 | 84 | 1015.7 |
| 20260510134556 | 17 | 142 | 0.0 | 1.6 | 0.00 | 0.00 | 0.00 | 85 | 1015.4 |
| 20260510133056 | 16 | 91 | 0.0 | 0.0 | 0.00 | 0.00 | 0.00 | 85 | 1015.7 |
| 20260510131555 | 17 | 91 | 0.0 | 0.0 | 0.00 | 0.00 | 0.00 | 85 | 1016.0 |
| 20260510130054 | 17 | 91 | 0.0 | 0.0 | 0.00 | 0.00 | 0.00 | 85 | 1015.7 |
| 20260510124606 | 17 | 91 | 0.0 | 0.0 | 0.00 | 0.00 | 0.00 | 85 | 1015.6 |
| 20260510123049 | 17 | 91 | 0.0 | 0.0 | 0.00 | 0.00 | 0.00 | 85 | 1014.7 |
| 20260510121545 | 17 | 91 | 0.0 | 0.0 | 0.00 | 0.00 | 0.00 | 85 | 1014.2 |
| 20260510120042 | 16 | 91 | 0.0 | 0.0 | 0.00 | 0.00 | 0.00 | 85 | 1013.7 |
| 20260510114540 | 16 | 91 | 0.0 | 0.0 | 0.00 | 0.00 | 0.00 | 84 | 1013.0 |
| 20260510113038 | 16 | 92 | 0.0 | 0.0 | 0.00 | 0.00 | 0.00 | 82 | 1012.7 |
| 20260510111534 | 17 | 92 | 0.0 | 0.0 | 0.00 | 0.00 | 0.00 | 81 | 1012.7 |
| 20260510110038 | 17 | 92 | 0.0 | 0.0 | 0.00 | 0.00 | 0.00 | 79 | 1012.5 |
| 20260510104530 | 17 | 92 | 0.0 | 0.0 | 0.00 | 0.00 | 0.00 | 76 | 1012.2 |
| 20260510103033 | 18 | 92 | 0.0 | 0.0 | 0.00 | 0.00 | 0.00 | 76 | 1012.0 |
| 20260510101529 | 18 | 98 | 0.0 | 1.6 | 0.00 | 0.00 | 0.00 | 76 | 1012.0 |
| 20260510100029 | 17 | 149 | 0.0 | 0.0 | 0.00 | 0.00 | 0.00 | 77 | 1011.9 |
| 20260510094544 | 17 | 149 | 0.0 | 0.0 | 0.00 | 0.00 | 0.00 | 76 | 1011.6 |
| 20260510093031 | 17 | 149 | 0.0 | 0.0 | 0.00 | 0.00 | 0.00 | 76 | 1011.5 |
| 20260510091525 | 18 | 149 | 0.0 | 0.0 | 0.00 | 0.00 | 0.00 | 74 | 1011.3 |
| 20260510090024 | 18 | 149 | 0.0 | 0.0 | 0.00 | 0.00 | 0.00 | 72 | 1011.3 |
| 20260510084521 | 18 | 149 | 0.0 | 0.0 | 0.00 | 0.00 | 0.00 | 71 | 1010.9 |
| 20260510083019 | 19 | 149 | 0.0 | 1.6 | 0.00 | 0.00 | 0.00 | 70 | 1010.2 |
| 20260510081519 | 19 | 158 | 0.0 | 4.8 | 0.00 | 0.00 | 0.00 | 70 | 1009.6 |
| 20260510080023 | 19 | 148 | 0.0 | 1.6 | 0.00 | 0.00 | 0.00 | 71 | 1009.4 |
| 20260510074518 | 19 | 134 | 0.0 | 4.8 | 0.00 | 0.00 | 0.00 | 70 | 1008.7 |
| 20260510073019 | 19 | 114 | 4.8 | 25.7 | 0.00 | 0.00 | 0.00 | 70 | 1007.8 |
| 20260510071514 | 18 | 172 | 0.0 | 4.8 | 0.00 | 0.00 | 0.00 | 73 | 1010.5 |
| 20260510070020 | 19 | 107 | 1.6 | 12.9 | 0.00 | 0.03 | 0.00 | 69 | 1010.2 |
| 20260510064506 | 20 | 132 | 1.6 | 12.9 | 0.00 | 0.03 | 0.00 | 62 | 1010.3 |
| 20260510063005 | 21 | 130 | 1.6 | 8.0 | 0.00 | 0.03 | 0.00 | 61 | 1013.1 |
| 20260510061502 | 21 | 132 | 0.0 | 0.0 | 0.00 | 0.03 | 0.00 | 65 | 1012.3 |
| 20260510060003 | 21 | 150 | 0.0 | 0.0 | 0.00 | 0.03 | 0.00 | 63 | 1012.2 |
| 20260510054601 | 21 | 150 | 0.0 | 0.0 | 0.00 | 0.03 | 0.00 | 63 | 1012.4 |
| 20260510053105 | 21 | 150 | 0.0 | 0.0 | 0.00 | 0.03 | 0.00 | 64 | 1012.6 |
| 20260510051558 | 21 | 155 | 0.0 | 3.2 | 0.00 | 0.03 | 0.00 | 65 | 1012.7 |
| 20260510050057 | 20 | 157 | 0.0 | 6.4 | 0.00 | 0.03 | 0.03 | 67 | 1012.4 |
| 20260510044550 | 19 | 94 | 0.0 | 0.0 | 0.00 | 0.03 | 0.03 | 74 | 1011.4 |
| 20260510043059 | 19 | 95 | 0.0 | 0.0 | 0.00 | 0.03 | 0.03 | 73 | 1011.2 |
| 20260510041545 | 19 | 94 | 0.0 | 0.0 | 0.00 | 0.03 | 0.03 | 73 | 1010.9 |
| 20260510040045 | 20 | 94 | 0.0 | 0.0 | 0.00 | 0.03 | 0.03 | 70 | 1010.7 |
| 20260510034544 | 20 | 94 | 0.0 | 0.0 | 0.00 | 0.03 | 0.03 | 69 | 1010.6 |
| 20260510033048 | 20 | 94 | 0.0 | 0.0 | 0.00 | 0.03 | 0.03 | 68 | 1010.5 |
| 20260510031547 | 20 | 94 | 0.0 | 0.0 | 0.00 | 0.03 | 0.03 | 66 | 1010.5 |
| 20260510030041 | 20 | 94 | 0.0 | 0.0 | 0.00 | 0.03 | 0.03 | 65 | 1010.5 |
| 20260510024544 | 20 | 95 | 0.0 | 0.0 | 0.00 | 0.03 | 0.03 | 64 | 1010.3 |
| 20260510023041 | 21 | 95 | 0.0 | 0.0 | 0.00 | 0.03 | 0.03 | 61 | 1009.8 |
| 20260510021546 | 21 | 94 | 0.0 | 0.0 | 0.00 | 0.03 | 0.03 | 57 | 1008.9 |
| 20260510020040 | 21 | 94 | 0.0 | 0.0 | 0.00 | 0.08 | 0.03 | 56 | 1008.6 |
| 20260510014541 | 22 | 94 | 0.0 | 0.0 | 0.00 | 0.08 | 0.03 | 52 | 1008.3 |
| 20260510013047 | 23 | 94 | 0.0 | 0.0 | 0.00 | 0.08 | 0.03 | 48 | 1008.1 |
| 20260510011543 | 24 | 94 | 0.0 | 0.0 | 0.00 | 0.08 | 0.03 | 45 | 1007.9 |
| 20260510010038 | 25 | 94 | 0.0 | 1.6 | 0.00 | 0.51 | 0.03 | 42 | 1007.8 |
| 20260510004537 | 26 | 93 | 0.0 | 4.8 | 0.00 | 0.51 | 0.03 | 41 | 1007.8 |
| 20260510003037 | 26 | 94 | 0.0 | 4.8 | 0.00 | 0.51 | 0.03 | 37 | 1007.5 |
| 20260510001541 | 26 | 95 | 0.0 | 6.4 | 0.00 | 0.51 | 0.03 | 39 | 1007.6 |
| 20260510000046 | 27 | 93 | 1.6 | 8.0 | 0.00 | 0.79 | 0.03 | 37 | 1007.6 |
| 20260509234535 | 27 | 96 | 0.0 | 11.3 | 0.00 | 0.79 | 0.03 | 34 | 1007.7 |
| 20260509233033 | 27 | 105 | 0.0 | 8.0 | 0.00 | 0.79 | 0.03 | 31 | 1007.7 |
| 20260509231531 | 28 | 106 | 1.6 | 11.3 | 0.00 | 0.79 | 0.03 | 33 | 1007.8 |
| 20260509230033 | 28 | 98 | 0.0 | 8.0 | 0.00 | 0.79 | 0.03 | 35 | 1007.9 |
| 20260509224530 | 28 | 93 | 4.8 | 14.5 | 0.00 | 0.79 | 0.03 | 33 | 1008.0 |
| 20260509223026 | 28 | 97 | 3.2 | 12.9 | 0.00 | 0.79 | 0.03 | 32 | 1008.1 |
| 20260509221525 | 29 | 93 | 1.6 | 12.9 | 0.00 | 0.79 | 0.03 | 32 | 1008.1 |
| 20260509220025 | 30 | 113 | 3.2 | 12.9 | 0.00 | 0.79 | 0.03 | 25 | 1008.3 |
| 20260509214524 | 29 | 100 | 3.2 | 12.9 | 0.00 | 0.79 | 0.03 | 19 | 1008.2 |
| 20260509213028 | 29 | 96 | 0.0 | 11.3 | 0.00 | 0.79 | 0.03 | 27 | 1008.4 |
| 20260509211520 | 29 | 102 | 1.6 | 9.7 | 0.00 | 0.79 | 0.03 | 24 | 1008.5 |
| 20260509210019 | 29 | 98 | 3.2 | 11.3 | 0.00 | 0.79 | 0.03 | 29 | 1008.7 |
| 20260509204517 | 29 | 101 | 0.0 | 9.7 | 0.00 | 0.79 | 0.03 | 29 | 1008.9 |
| 20260509203017 | 30 | 93 | 0.0 | 11.3 | 0.00 | 0.79 | 0.03 | 31 | 1009.0 |
| 20260509201513 | 30 | 90 | 1.6 | 14.5 | 0.00 | 0.79 | 0.03 | 31 | 1009.1 |
| 20260509200013 | 29 | 96 | 3.2 | 9.7 | 0.00 | 0.79 | 0.03 | 33 | 1009.2 |
| 20260509194511 | 29 | 95 | 0.0 | 11.3 | 0.00 | 0.79 | 0.03 | 35 | 1009.4 |
| 20260509193021 | 30 | 94 | 1.6 | 6.4 | 0.00 | 0.79 | 0.03 | 28 | 1009.6 |
| 20260509191510 | 29 | 103 | 1.6 | 9.7 | 0.00 | 0.79 | 0.03 | 26 | 1009.7 |
| 20260509190007 | 29 | 173 | 0.0 | 9.7 | 0.00 | 0.79 | 0.03 | 32 | 1009.6 |
| 20260509184519 | 29 | 102 | 3.2 | 12.9 | 0.00 | 0.79 | 0.03 | 32 | 1009.7 |
| 20260509183005 | 28 | 94 | 1.6 | 4.8 | 0.00 | 0.79 | 0.03 | 32 | 1009.9 |
| 20260509181502 | 28 | 139 | 0.0 | 3.2 | 0.00 | 0.79 | 0.03 | 42 | 1010.0 |
| 20260509174620 | 27 | 135 | 0.0 | 1.6 | 0.00 | 0.79 | 0.03 | 49 | 1010.5 |
| 20260509173059 | 27 | 131 | 0.0 | 4.8 | 0.00 | 0.79 | 0.03 | 54 | 1010.6 |
| 20260509171552 | 26 | 92 | 0.0 | 6.4 | 0.00 | 0.79 | 0.03 | 58 | 1010.7 |
| 20260509170051 | 27 | 107 | 0.0 | 4.8 | 0.00 | 0.79 | 0.03 | 61 | 1010.8 |
| 20260509164547 | 26 | 130 | 0.0 | 4.8 | 0.00 | 0.79 | 0.03 | 62 | 1010.9 |
| 20260509163044 | 25 | 131 | 0.0 | 6.4 | 0.00 | 0.79 | 0.03 | 65 | 1011.0 |
| 20260509161541 | 25 | 103 | 0.0 | 1.6 | 0.00 | 0.79 | 0.03 | 70 | 1011.0 |
| 20260509160037 | 23 | 101 | 0.0 | 3.2 | 0.00 | 0.79 | 0.03 | 73 | 1011.0 |
| 20260509154532 | 22 | 98 | 0.0 | 3.2 | 0.00 | 0.79 | 0.03 | 80 | 1010.8 |
| 20260509153039 | 21 | 95 | 0.0 | 4.8 | 0.00 | 0.79 | 0.03 | 89 | 1010.7 |
| 20260509151523 | 20 | 96 | 0.0 | 1.6 | 0.00 | 0.79 | 0.03 | 95 | 1010.8 |
| 20260509150021 | 20 | 97 | 0.0 | 1.6 | 0.00 | 0.79 | 0.03 | 97 | 1010.9 |
| 20260509144523 | 18 | 98 | 0.0 | 1.6 | 0.00 | 0.79 | 0.03 | 98 | 1010.9 |
| 20260509143013 | 17 | 97 | 0.0 | 0.0 | 0.00 | 0.79 | 0.03 | 98 | 1011.0 |